This is the latest recevied weather packets stored in our database for station/object PY5KT-13. If no packets are shown the sender has not sent any weather packets the latest 10 day(s).
| Time | Temp. | Humidity | Pressure | Rain* | Wind** | Luminosity | Snow |
|---|---|---|---|---|---|---|---|
| 1777484984 | 15° C | 97% | 1017.8 hPa | 3.81 mm | - | 47 W/m² | - |
| 1777484683 | 15° C | 97% | 1017.7 hPa | 3.81 mm | - | 46 W/m² | - |
| 1777484381 | 15° C | 97% | 1017.7 hPa | 3.81 mm | - | 51 W/m² | - |
| 1777484079 | 15° C | 96% | 1017.8 hPa | 3.81 mm | - | 54 W/m² | - |
| 1777483777 | 15° C | 96% | 1018 hPa | 3.56 mm | - | 58 W/m² | - |
| 1777483476 | 15° C | 96% | 1018.2 hPa | 3.56 mm | - | 62 W/m² | - |
| 1777483174 | 15° C | 95% | 1018.3 hPa | 3.05 mm | - | 57 W/m² | - |
| 1777482873 | 15° C | 95% | 1018.5 hPa | 1.27 mm | - | 52 W/m² | - |
| 1777482570 | 15° C | 95% | 1017.8 hPa | 0 mm | - | 51 W/m² | - |
| 1777482269 | 15° C | 95% | 1017.8 hPa | 0 mm | - | 58 W/m² | - |
| 1777481967 | 15° C | 94% | 1018 hPa | 0 mm | - | 64 W/m² | - |
| 1777481665 | 15° C | 95% | 1018 hPa | 0 mm | - | 21 W/m² | - |
| 1777481363 | 15° C | 95% | 1017.9 hPa | 1.27 mm | - | 24 W/m² | - |
| 1777481062 | 15.56° C | 95% | 1017.9 hPa | 1.27 mm | - | 33 W/m² | - |
| 1777480760 | 15.56° C | 95% | 1018 hPa | 1.27 mm | - | 39 W/m² | - |
| 1777480458 | 15.56° C | 95% | 1018.1 hPa | 1.27 mm | - | 32 W/m² | - |
| 1777480156 | 15° C | 95% | 1018.1 hPa | 1.52 mm | - | 37 W/m² | - |
| 1777479855 | 15° C | 95% | 1018 hPa | 1.52 mm | - | 36 W/m² | - |
| 1777479553 | 15.56° C | 95% | 1018.2 hPa | 1.78 mm | - | 53 W/m² | - |
| 1777479252 | 15° C | 95% | 1018.2 hPa | 1.78 mm | - | 58 W/m² | - |
| 1777478950 | 15° C | 95% | 1018.2 hPa | 2.29 mm | - | 57 W/m² | - |
| 1777478649 | 15° C | 95% | 1018.3 hPa | 2.29 mm | - | 55 W/m² | - |
| 1777478347 | 15° C | 95% | 1018.6 hPa | 2.54 mm | - | 60 W/m² | - |
| 1777478045 | 15° C | 95% | 1018.7 hPa | 2.54 mm | - | 59 W/m² | - |
| 1777477744 | 15° C | 96% | 1018.9 hPa | 2.79 mm | - | 57 W/m² | - |
* Rain latest hour (hover to see other rain measurements)
** Current wind speed in m/s (hover to see current wind gust speed)